Change the Weather History Date:

Saturday, November 10, 2012

  Actual Average Record
Temperature  
Mean Temperature 52 °F -  
Max Temperature 62 °F 66 °F 79 °F (1996)
Min Temperature 43 °F 47 °F 41 °F (2000)
Degree Days  
Heating Degree Days 12    
Growing Degree Days 2 (Base 50)    
Moisture  
Dew Point 43 °F    
Average Humidity 63    
Maximum Humidity 77    
Minimum Humidity 56    
Precipitation  
Precipitation 0.00 in - - ()
Sea Level Pressure  
Sea Level Pressure 30.07 in    
Wind  
Wind Speed 8 mph (NNW)    
Max Wind Speed 21 mph    
Max Gust Speed 28 mph    
Visibility 7 miles    
Events Rain    
Averages and records for this station are not official NWS values.
T = Trace of Precipitation, MM = Missing Value Source: NWS Daily Summary

Daily Weather History Graph

Daily Weather History Graph

Search for Another Location

Airport or City:

Trip Planner

Search our weather history database for the weather conditions in past years. The results will help you decide how hot, cold, wet, or windy it might be!

Date:

Astronomy

Nov. 10, 2012 Rise Set
Actual Time 6:25 AM PST 4:55 PM PST
Civil Twilight 5:58 AM PST 5:21 PM PST
Nautical Twilight 5:28 AM PST 5:51 PM PST
Astronomical Twilight 4:59 AM PST 6:21 PM PST
Moon 2:44 AM PST (11/10) 2:38 PM PST (11/10)
Length of Visible Light 11h 23m
Length of Day
10h 30m
Waning Crescent, 13% of the Moon is Illuminated
Nov 10
Waning Crescent
Nov 13
New
Nov 20
First Quarter
Nov 28
Full
Dec 6
Last Quarter

Hourly Weather History & Observations

Time (PST) Temp. Windchill Dew Point Humidity Pressure Visibility Wind Dir Wind Speed Gust Speed Precip Events Conditions
12:54 AM - - - N/A% 29.98 in 7.0 mi NNE 4.6 mph - N/A   Clear
1:54 AM - - - N/A% 29.98 in 7.0 mi NNE 4.6 mph - N/A   Clear
2:54 AM - - - N/A% 29.99 in 7.0 mi North 5.8 mph - N/A   Clear
3:54 AM - - - N/A% 30.00 in 7.0 mi North 6.9 mph - N/A   Clear
4:54 AM - - - N/A% 30.01 in 7.0 mi North 5.8 mph - N/A   Clear
5:54 AM 48.2 °F - 37.9 °F 68% 30.04 in 7.0 mi North 4.6 mph - N/A   Scattered Clouds
6:54 AM 43.7 °F 41.1 °F 37.0 °F 77% 30.06 in 7.0 mi North 4.6 mph - N/A   Scattered Clouds
7:54 AM 47.5 °F - 39.0 °F 72% 30.08 in 7.0 mi North 4.6 mph - N/A   Scattered Clouds
8:54 AM 53.1 °F - 41.0 °F 64% 30.10 in 7.0 mi Calm Calm - N/A   Scattered Clouds
9:54 AM 57.4 °F - 44.1 °F 61% 30.11 in 7.0 mi West 11.5 mph - N/A   Scattered Clouds
10:54 AM 59.5 °F - 46.0 °F 61% 30.12 in 7.0 mi WSW 12.7 mph 21.9 mph N/A   Scattered Clouds
11:54 AM 59.4 °F - 46.9 °F 63% 30.09 in 7.0 mi West 19.6 mph - 0.00 in Rain Light Rain
12:54 PM 60.1 °F - 46.9 °F 62% 30.07 in 8.0 mi West 16.1 mph 26.5 mph 0.00 in   Scattered Clouds
1:54 PM 60.8 °F - 46.9 °F 60% 30.06 in 7.0 mi West 20.7 mph 27.6 mph N/A   Scattered Clouds
2:54 PM 61.9 °F - 48.0 °F 60% 30.05 in 7.0 mi West 20.7 mph 25.3 mph 0.00 in   Scattered Clouds
3:39 PM - - - N/A% 30.04 in 5.0 mi West 19.6 mph 26.5 mph 0.00 in   Haze
3:54 PM 62.4 °F - 46.9 °F 57% 30.05 in 7.0 mi West 19.6 mph 25.3 mph N/A   Partly Cloudy
4:54 PM 60.1 °F - 46.0 °F 60% 30.05 in 7.0 mi WNW 18.4 mph 25.3 mph N/A   Partly Cloudy
5:54 PM 59.0 °F - 46.9 °F 64% 30.08 in 7.0 mi WNW 13.8 mph 21.9 mph N/A   Clear
6:54 PM 57.4 °F - 44.1 °F 61% 30.10 in 7.0 mi NW 15.0 mph - N/A   Clear
7:54 PM 56.5 °F - 41.0 °F 56% 30.13 in 8.0 mi NE 3.5 mph - N/A   Clear
8:54 PM - - - N/A% 30.16 in 7.0 mi NE 5.8 mph - N/A   Clear
9:54 PM 54.5 °F - 42.1 °F 63% 30.17 in 7.0 mi North 3.5 mph - N/A   Clear
10:54 PM 49.5 °F - 37.0 °F 62% 30.17 in 7.0 mi NNW 5.8 mph - N/A   Clear
11:54 PM - - - N/A% 30.18 in 7.0 mi NE 4.6 mph - N/A   Clear